Regional Weather Roundup
Issued by NWS Upton, NY

Current Version | Previous Version | Graphics & Text | Print | Product List | Glossary Off
Versions: 1 2 3 4 5 6 7 8 9 10 11 12 13 14 15 16 17 18 19 20 21 22 23 24 25 26 27 28 29 30 31 32 33 34 35 36 37 38 39 40 41 42 43 44 45 46 47 48 49 50

000
ASUS41 KOKX 012305
RWROKX

REGIONAL WEATHER ROUNDUP
NATIONAL WEATHER SERVICE NEW YORK NY
600 PM EST SUN FEB 01 2015

NOTE: "FAIR" INDICATES FEW OR NO CLOUDS BELOW 12,000 FEET WITH NO
SIGNIFICANT WEATHER AND/OR OBSTRUCTIONS TO VISIBILITY.

NYZ071-072-176-178-NJZ106-104-020000-
NEW YORK CITY METRO AREA


CITY           SKY/WX    TMP DP  RH WIND       PRES   REMARKS
CENTRAL PARK   CLOUDY    35  19  52 CALM      30.14F
LAGUARDIA APRT CLOUDY    35  20  54 W5        30.12F WCI  31
KENNEDY INTL   CLOUDY    34  22  61 SW5       30.14F WCI  30
NEWARK/LIBERTY CLOUDY    35  21  56 NW3       30.13F
BRNX BOT. GARD   N/A    N/A N/A N/A S3        30.12S
TETERBORO      CLOUDY    35  19  52 SW5       30.12F WCI  31
$$

NYZ177-179-078>081-020000-
LONG ISLAND NEW YORK

CITY           SKY/WX    TMP DP  RH WIND       PRES   REMARKS
FARMINGDALE    CLOUDY    33  20  58 S3        30.13S
ISLIP          MOCLDY    31  20  63 SW6       30.12S WCI  25
SHIRLEY        PTCLDY    28  18  66 CALM      30.14S
WESTHAMPTON    PTCLDY    25  15  66 SE3       30.15S
MONTAUK POINT    N/A     32  21  64 CALM      30.15S
$$

NYZ052-065-067-020000-
HUDSON VALLEY

CITY           SKY/WX    TMP DP  RH WIND       PRES   REMARKS
WHITE PLAINS   MOCLDY    30  20  66 CALM      30.09F
NEWBURGH       CLOUDY    30  21  69 CALM      30.10F
MONTGOMERY     CLOUDY    30  19  63 CALM      30.08S
POUGHKEEPSIE   CLOUDY    31  16  54 CALM      30.10F
ALBANY         CLOUDY    21   5  50 N9        30.15S WCI  11
$$

NJZ001-105-106-008-010-013-015-019>022-104-020000-
NEW JERSEY

CITY           SKY/WX    TMP DP  RH WIND       PRES   REMARKS
NEWARK/LIBERTY CLOUDY    35  21  56 NW3       30.13F
TETERBORO      CLOUDY    35  19  52 SW5       30.12F WCI  31
CALDWELL       CLOUDY    33  20  58 CALM      30.12F
MORRISTOWN     CLOUDY    32  23  69 CALM      30.12F
SOMERVILLE     CLOUDY    34  23  64 CALM      30.11S
SUSSEX         CLOUDY    32  21  64 CALM      30.10R
ANDOVER          N/A     31  22  69 CALM      30.10R
TRENTON        CLOUDY    35  23  61 CALM      30.12S
MILLVILLE      CLOUDY    35  21  56 SE5       30.14R WCI  31
ATLANTIC CITY  CLOUDY    35  23  61 S7        30.15R WCI  29
WRIGHTSTOWN    CLOUDY    35  25  67 S2        30.12R
TOMS RIVER     CLOUDY    34  25  69 CALM      30.14R
BELMAR         CLOUDY    36  18  48 CALM      30.13R
$$

PAZ047>061-062-071-020000-
EASTERN PENNSYLVANIA

CITY           SKY/WX    TMP DP  RH WIND       PRES   REMARKS
PHILADELPHIA   CLOUDY    38  23  55 S6        30.13S WCI  33
ALLENTOWN      LGT SNOW  34  25  69 CALM      30.10S
SCRANTON       LGT SNOW  28  24  85 NE5       30.05S FOG     WCI  23
$$

CTZ002-004>006-009-010-012-RIZ004-006-007-MAZ004-011-015-020000-
SOUTHERN NEW ENGLAND
 IN CT

CITY           SKY/WX    TMP DP  RH WIND       PRES   REMARKS
BRADLEY INTL   CLOUDY    30   8  39 N3        30.12S
HARTFORD       PTCLDY    29  12  49 CALM      30.13F
DANBURY        PTCLDY    26  17  68 CALM      30.11S
WTRBRY/OXFORD  MOCLDY    28  12  50 CALM      30.09F
BRIDGEPORT     MOCLDY    31  24  75 CALM      30.13S
MERIDEN        MOCLDY    25  16  68 CALM      30.13S
NEW HAVEN      MOCLDY    27  19  72 CALM      30.12F
CHESTER        FAIR      30  18  59 CALM      30.11F
GROTON         PTCLDY    30  20  66 W5        30.14S WCI  25
WILLIMANTIC    PTCLDY    28   9  44 NW3       30.13S

 IN RI

CITY           SKY/WX    TMP DP  RH WIND       PRES   REMARKS
PROVIDENCE     PTCLDY    30   9  41 CALM      30.13S
BLOCK ISLAND   MOCLDY    34  18  51 W9        30.11F WCI  26
WESTERLY       MOCLDY    31  12  45 CALM      30.13F

 IN MA

CITY           SKY/WX    TMP DP  RH WIND       PRES   REMARKS
BOSTON         MOCLDY    26   1  34 NW7       30.15R WCI  18
WORCESTER      PTCLDY    30   4  33 NW6       30.07S WCI  24
WESTFIELD      MOCLDY    29   6  38 NW3       30.12S
PROVINCETOWN   PTCLDY   N/A N/A N/A W17       30.12S
NANTUCKET      CLEAR     28  15  58 W7        30.14R WCI  21
$$

ANZ330-335-338-340-345-350-353-355-020000-
COASTAL MARINE OBSERVATIONS


STATION/POSITION TIME  SKY/WX   TEMP    WIND        PRES    VSBY  WAVE
                                AIR SEA DIR/SP/G                  HT/PER
                 (UTC)          (F)     (DEG/KT/KT) (MB)    (MI)  (FT/S)
NY HARB ENTRANCE 2300            36 39   CALM  /  4 1020.3          1/11
4S FIRE IS       NOT AVBL
20S FIRE ISLAND  2200               41              1021.1          2/ 4
23SW MTP         2300                                 N/A           2/ 5
HUDSON CANYON    NOT AVBL
EXECUTION ROCKS  2300            34 32  240/  6/  8   N/A
WESTERN LI SOUND 2300            35     220/  6/  8   N/A           0
CENTRAL LI SOUND 2200            33 34  220/  4/  4   N/A           1
EASTERN LI SOUND NOT AVBL
ROBBINS REEF     2300            35      10/  2/  2 1019.0
$$


>>>>>>>>>>>>>>>>>>>>>>>>>>>> KEY <<<<<<<<<<<<<<<<<<<<<<<<<<<
>                                                          <
>     SKY/WX - SKY CONDITION/PRESENT WEATHER               <
>     TMP    - TEMPERATURE IN FAHRENHEIT                   <
>     DP     - DEWPOINT IN FAHRENHEIT                      <
>     RH     - RELATIVE HUMIDITY IN PERCENT                <
>     WIND   - DIRECTION AND SPEED IN MPH                  <
>     PRES   - MEAN SEA LEVEL PRESSURE IN INCHES OF HG     <
>     WCI    - WIND CHILL INDEX                            <
>     VSB    - VISIBILITY IN MILES                         <
>     HX     - HEAT INDEX                                  <
>     TC     - TEMPERATURE IN CELSIUS                      <
>     VRB    - VARIABLE WIND DIRECTION                     <
>                                                          <
>>>>>>>>>>>>>>>>>>>>>>>>>>>> KEY <<<<<<<<<<<<<<<<<<<<<<<<<<<





USA.gov is the U.S. government's official web portal to all federal, state and local government web resources and services.